Date,TemperatureHighF,TemperatureAvgF,TemperatureLowF,DewpointHighF,DewpointAvgF,DewpointLowF,HumidityHigh,HumidityAvg,HumidityLow,PressureMaxIn,PressureMinIn,WindSpeedMaxMPH,WindSpeedAvgMPH,GustSpeedMaxMPH,PrecipitationSumIn
2013-1-1,33.4,30.5,25.7,30.0,27.0,21.0,92,87,68,30.00,29.90,7,2,0,0.00
2013-1-2,27.3,23.4,20.2,21.0,14.1,10.0,83,68,53,30.19,29.99,7,2,0,0.09
2013-1-3,33.2,26.9,21.0,19.0,15.6,13.0,72,63,52,30.19,30.08,12,3,0,0.12
2013-1-4,31.8,28.2,26.4,20.0,19.2,18.0,75,69,57,30.23,30.14,12,6,0,0.00
2013-1-5,36.5,31.0,25.8,22.0,20.2,19.0,75,65,54,30.34,30.10,10,2,0,0.18
2013-1-6,37.8,35.8,33.7,30.0,25.3,21.0,86,66,58,30.13,29.95,13,3,0,0.15
2013-1-7,36.0,30.5,27.0,29.0,23.2,20.0,88,75,56,30.41,30.13,10,2,0,0.03
2013-1-8,46.8,39.9,27.2,27.0,22.7,17.0,71,51,41,30.30,30.19,7,2,0,0.32
2013-1-9,49.2,45.5,40.5,42.0,33.7,21.0,90,66,39,30.40,30.16,11,4,0,0.14
2013-1-10,48.3,39.7,34.0,36.0,29.9,24.0,87,69,39,30.52,30.18,14,1,0,0.01
2013-1-11,58.7,54.1,46.0,53.0,44.0,28.0,89,70,45,30.16,29.85,24,6,0,0.14
2013-1-12,66.1,61.7,56.7,54.0,52.3,50.0,86,72,58,29.99,29.83,12,3,0,0.00
2013-1-13,67.8,65.2,57.5,55.0,50.2,47.0,91,59,50,29.86,29.73,16,5,0,0.32
2013-1-14,59.3,41.2,32.8,55.0,34.5,25.0,91,77,65,30.28,29.77,17,4,0,0.10
2013-1-15,34.0,31.2,28.7,31.0,25.3,22.0,91,79,74,30.30,29.98,7,2,0,0.32
2013-1-16,38.3,34.8,32.8,36.0,32.2,30.0,93,90,84,29.98,29.80,12,2,0,0.46
2013-1-17,34.9,32.6,30.0,30.0,26.6,25.0,85,79,70,30.12,29.97,7,1,0,0.00
2013-1-18,37.2,27.9,20.0,25.0,12.0,1.0,83,53,22,30.46,30.11,18,5,0,0.00
2013-1-19,53.3,45.0,38.6,16.0,11.0,-3.0,35,25,17,30.23,29.80,20,6,0,0.00
2013-1-20,46.2,37.9,24.7,28.0,16.0,7.0,61,42,26,30.06,29.76,24,6,0,0.00
2013-1-21,29.8,23.5,13.3,17.0,10.5,-5.0,80,58,43,30.05,29.84,16,5,0,0.00
2013-1-22,14.1,10.2,6.7,3.0,-4.4,-8.0,68,52,42,30.27,30.01,14,5,0,0.00
2013-1-23,16.4,11.9,6.3,10.0,-0.5,-4.0,80,59,42,30.30,30.02,10,2,0,0.00
2013-1-24,19.9,15.1,11.2,11.0,5.6,-4.0,85,68,45,30.51,30.01,14,3,0,0.00
2013-1-25,21.4,16.6,10.4,17.0,7.7,-3.0,85,69,50,30.50,29.98,6,1,0,0.00
2013-1-26,26.3,22.9,19.7,22.0,17.8,11.0,88,81,62,30.39,30.06,10,2,0,0.00
2013-1-27,35.3,25.8,17.8,20.0,14.6,11.0,76,63,45,30.48,30.23,6,0,0,0.13
2013-1-28,51.3,45.3,33.4,50.0,39.9,18.0,94,82,50,30.23,29.97,17,4,0,0.49
2013-1-29,67.9,59.0,51.0,52.0,49.5,46.0,96,74,50,29.98,29.70,13,5,0,0.02
2013-1-30,73.2,60.3,47.3,53.0,49.8,43.0,89,70,44,29.67,29.14,19,7,0,1.12
2013-1-31,46.8,28.5,23.3,42.0,18.6,7.0,86,67,48,29.83,29.15,22,8,0,0.10
2013-2-1,23.6,14.6,10.5,19.0,6.7,0.0,88,71,55,30.34,29.76,12,5,0,0.00
2013-2-2,24.7,18.5,10.0,22.0,9.8,0.0,89,70,48,30.33,29.93,16,3,0,0.00
2013-2-3,26.4,23.4,18.3,23.0,20.1,11.0,90,86,72,30.01,29.76,11,2,0,0.04
2013-2-4,31.9,23.7,17.7,30.0,17.3,9.0,92,77,56,30.06,29.80,9,3,0,0.00
2013-2-5,34.9,32.0,29.1,33.0,29.6,24.0,94,91,67,29.88,29.76,12,1,0,0.06
2013-2-6,31.2,29.1,25.7,28.0,24.1,21.0,92,82,71,30.27,29.87,4,0,0,0.00
2013-2-7,43.2,33.7,22.9,30.0,24.5,18.0,84,70,52,30.24,29.86,18,3,0,0.25
2013-2-8,41.6,34.9,25.0,36.0,28.0,18.0,89,76,65,30.10,29.71,17,6,0,0.15
2013-2-9,32.5,26.7,23.5,20.0,16.0,14.0,84,65,51,30.34,30.11,14,4,0,0.00
2013-2-10,54.1,38.1,20.2,35.0,16.3,9.0,76,45,20,30.30,29.87,16,3,0,0.02
2013-2-11,61.8,51.9,40.5,45.0,33.3,19.0,81,53,22,29.87,29.59,21,9,0,0.03
2013-2-12,48.2,40.5,35.5,25.0,21.2,17.0,59,47,31,29.99,29.79,18,5,0,0.00
2013-2-13,40.9,36.5,30.9,30.0,24.3,17.0,92,64,41,29.84,29.55,9,1,0,0.01
2013-2-14,43.8,35.6,28.1,31.0,26.7,24.0,92,72,52,29.92,29.79,16,3,0,0.13
2013-2-15,41.8,35.2,30.0,31.0,27.7,23.0,90,75,54,29.97,29.84,8,2,0,0.06
2013-2-16,30.0,24.7,20.8,26.0,16.6,9.0,87,72,54,29.97,29.87,10,2,0,0.01
2013-2-17,21.1,17.8,13.8,15.0,8.7,3.0,85,68,51,30.24,29.87,13,6,0,0.00
2013-2-18,49.4,32.9,14.1,29.0,12.6,2.0,60,45,28,30.28,29.81,21,4,0,0.00
2013-2-19,47.9,39.6,25.3,36.0,27.8,16.0,87,65,34,29.89,29.59,18,6,0,0.15
2013-2-20,25.4,20.5,18.6,17.0,11.0,7.0,81,67,57,30.20,29.89,13,6,0,0.00
2013-2-21,25.3,21.2,18.4,14.0,11.8,8.0,79,67,59,30.30,30.16,10,3,0,0.00
2013-2-22,43.2,34.7,21.1,35.0,25.4,13.0,83,69,46,30.22,29.89,21,6,0,0.02
2013-2-23,53.9,43.0,35.0,39.0,34.1,31.0,84,72,45,29.89,29.72,11,1,0,0.00
2013-2-24,35.0,29.5,26.7,31.0,22.6,18.0,85,76,67,30.09,29.76,13,2,0,0.00
2013-2-25,42.9,33.4,25.0,22.0,19.1,17.0,76,57,40,30.16,29.93,14,3,0,0.00
2013-2-26,40.1,36.8,34.1,33.0,24.6,17.0,82,63,46,29.94,29.44,20,8,0,0.61
2013-2-27,40.5,38.2,32.1,37.0,33.6,30.0,91,84,72,29.62,29.46,15,3,0,0.29
2013-2-28,32.2,31.4,30.9,30.0,28.8,27.0,92,89,84,29.75,29.57,10,3,0,0.06
2013-3-1,31.8,29.1,26.1,30.0,24.0,20.0,92,81,65,29.90,29.74,16,4,0,0.01
2013-3-2,26.9,24.9,23.2,22.0,20.0,18.0,86,81,73,29.91,29.84,12,3,0,0.00
2013-3-3,27.0,23.9,21.8,21.0,17.3,14.0,88,76,59,29.97,29.87,15,3,0,0.01
2013-3-4,36.2,27.3,21.4,17.0,13.8,11.0,76,58,43,30.09,29.96,10,2,0,0.04
2013-3-5,51.4,36.2,24.5,30.0,18.1,5.0,92,52,18,30.02,29.49,21,2,0,0.02
2013-3-6,34.7,32.1,30.0,33.0,30.6,28.0,96,94,93,30.04,29.48,19,3,0,0.09
2013-3-7,37.2,33.6,31.0,33.0,28.8,25.0,95,83,62,30.21,30.03,12,3,0,0.00
2013-3-8,34.1,31.6,28.8,27.0,23.4,21.0,84,72,65,30.35,30.20,15,6,0,0.00
2013-3-9,58.3,40.6,24.2,30.0,22.1,15.0,86,54,20,30.34,30.06,12,1,0,0.00
2013-3-10,70.3,57.8,49.6,29.0,22.7,17.0,33,26,19,30.06,29.86,14,4,0,0.00
2013-3-11,62.9,58.1,52.0,48.0,30.3,23.0,85,37,24,29.90,29.61,25,4,0,0.06
2013-3-12,51.6,39.2,35.9,49.0,33.7,25.0,91,81,65,29.95,29.64,8,3,0,0.22
2013-3-13,35.6,30.9,25.6,29.0,23.9,18.0,89,76,59,30.09,29.87,17,4,0,0.03
2013-3-14,38.3,29.9,23.5,20.0,15.6,13.0,82,57,36,30.20,30.06,14,6,0,0.00
2013-3-15,50.4,39.0,29.8,32.0,21.8,14.0,60,51,42,30.10,29.74,12,4,0,0.00
2013-3-16,55.7,44.8,36.0,45.0,38.9,31.0,90,80,62,29.85,29.49,8,2,0,0.05
2013-3-17,36.8,33.3,29.3,31.0,23.3,19.0,85,68,52,30.10,29.85,12,4,0,0.00
2013-3-18,48.0,36.5,30.7,40.0,31.0,22.0,95,81,59,30.04,29.63,17,5,0,1.00
2013-3-19,47.7,40.8,32.4,44.0,23.8,8.0,90,55,23,29.91,29.61,24,7,0,0.06
2013-3-20,41.1,32.9,27.8,19.0,12.4,10.0,54,43,29,29.93,29.72,21,6,0,0.00
2013-3-21,27.0,23.0,16.9,19.0,11.1,5.0,87,62,43,29.90,29.78,13,5,0,0.00
2013-3-22,39.3,29.2,23.5,16.0,14.4,12.0,70,55,36,29.96,29.88,18,4,0,0.00
2013-3-23,47.1,36.3,28.5,20.0,16.6,14.0,60,46,28,29.98,29.88,16,2,0,0.00
2013-3-24,40.2,33.2,28.1,29.0,20.2,15.0,90,61,39,29.90,29.34,16,3,0,0.00
2013-3-25,33.4,31.7,30.1,32.0,30.1,27.0,96,93,82,29.66,29.35,18,4,0,0.25
2013-3-26,38.9,33.8,30.9,36.0,30.0,25.0,96,87,61,30.02,29.67,16,3,0,0.23
2013-3-27,40.2,34.5,30.1,29.0,25.3,21.0,88,71,50,30.11,30.00,11,3,0,0.02
2013-3-28,41.3,36.4,31.2,28.0,25.2,23.0,83,65,50,30.20,30.07,10,3,0,0.01
2013-3-29,50.7,41.5,37.5,26.0,24.6,19.0,62,53,29,30.20,30.09,10,2,0,0.00
2013-3-30,55.0,51.1,47.3,23.0,16.9,12.0,37,26,19,30.07,29.92,11,1,0,0.00
2013-3-31,50.5,47.6,44.2,45.0,36.6,20.0,89,70,31,29.92,29.64,12,2,0,0.11
2013-4-1,46.2,41.2,33.8,42.0,28.2,10.0,86,63,28,29.96,29.65,13,5,0,0.02
2013-4-2,40.6,32.3,25.1,14.0,11.1,7.0,60,43,27,30.14,29.95,12,4,0,0.00
2013-4-3,41.8,32.8,26.4,16.0,10.8,4.0,59,42,23,30.33,30.12,21,4,0,0.00
2013-4-4,55.6,40.2,24.7,16.0,11.2,4.0,59,33,14,30.32,29.90,7,1,0,0.00
2013-4-5,56.3,46.1,35.8,32.0,22.8,16.0,72,42,27,30.06,29.84,24,6,0,0.00
2013-4-6,62.3,45.6,27.9,20.0,12.8,2.0,69,34,10,30.21,29.91,17,2,0,0.00
2013-4-7,71.1,62.8,55.1,50.0,35.5,19.0,80,39,24,29.91,29.78,20,6,0,0.06
2013-4-8,74.6,66.0,55.6,46.0,42.5,37.0,71,45,28,29.93,29.79,17,2,0,0.01
2013-4-9,79.8,70.8,61.5,51.0,48.1,45.0,60,46,33,29.98,29.80,13,2,0,0.00
2013-4-10,83.4,74.4,62.0,54.0,50.3,46.0,76,44,30,29.85,29.66,28,5,0,0.00
2013-4-11,79.9,70.0,58.9,55.0,51.8,49.0,74,54,34,29.75,29.55,11,3,0,0.00
2013-5-23,62.1,60.6,59.2,58.0,56.5,56.0,88,86,84,29.75,29.70,2,0,0,0.28
2013-5-24,58.7,44.8,40.8,56.0,37.5,30.0,92,77,55,30.22,29.73,14,6,0,0.09
2013-5-25,59.9,46.2,33.2,37.0,32.9,30.0,88,63,37,30.26,30.14,11,2,0,0.00
2013-5-26,64.7,52.5,40.1,39.0,33.4,30.0,68,51,30,30.22,30.12,12,1,0,0.00
2013-5-27,65.3,54.4,45.1,48.0,37.8,-99.9,76,57,39,30.18,29.99,11,-20,0,0.00
2013-5-28,80.3,72.5,65.2,65.0,55.2,46.0,84,55,46,29.98,29.88,12,2,0,0.06
2013-5-29,84.5,76.7,70.4,61.0,56.4,53.0,62,50,38,30.00,29.90,11,2,0,0.00
2013-5-30,88.8,79.0,70.4,62.0,59.0,56.0,65,51,36,30.08,29.95,6,0,0,0.00
2013-5-31,87.8,76.5,71.6,61.0,52.7,-99.9,62,47,33,30.01,29.85,7,-31,0,0.00
2013-6-1,85.9,77.1,65.6,64.0,61.1,58.0,88,60,43,29.91,29.70,8,1,0,0.00
2013-6-2,77.6,69.8,64.8,64.0,52.1,-99.9,88,63,51,29.77,29.67,17,-39,0,0.11
2013-6-3,67.1,56.1,55.3,61.0,38.6,-99.9,91,72,64,29.93,29.75,7,-94,0,0.02
2013-6-4,71.3,58.1,45.4,50.0,41.8,-99.9,87,59,32,30.07,29.93,6,-10,0,0.01
2013-6-5,84.1,66.6,51.3,63.0,51.3,-99.9,87,61,39,30.02,29.79,7,-10,0,0.19
2013-6-6,70.1,66.0,63.1,61.0,59.9,59.0,91,81,70,29.79,29.64,11,2,0,0.45
2013-6-7,65.6,62.1,60.2,62.0,59.1,-99.9,96,92,85,29.74,29.62,6,-11,0,0.20
2013-6-8,73.3,62.6,55.1,57.0,54.7,52.0,94,77,54,30.00,29.74,2,0,0,0.00
2013-6-9,83.8,71.4,59.3,63.0,58.8,54.0,87,66,39,30.05,29.87,8,0,0,0.00
2013-6-10,79.2,70.7,66.4,65.0,62.5,60.0,85,76,60,29.89,29.69,13,3,0,0.05
2013-6-13,70.3,64.9,59.6,64.0,59.9,56.0,91,84,72,29.68,29.46,10,2,0,0.98
2013-6-14,71.1,61.8,54.7,59.0,54.1,52.0,92,77,52,29.94,29.68,8,1,0,0.05
2013-6-15,79.4,67.0,55.7,56.0,51.1,42.0,91,61,27,30.03,29.91,2,0,0,0.00
2013-6-16,72.8,66.0,63.1,63.0,53.9,-99.9,83,70,53,29.91,29.83,10,-30,0,0.07
2013-6-17,82.2,60.4,66.3,66.0,35.8,-99.9,91,61,51,29.88,29.78,4,-166,0,0.68
2013-6-18,76.1,56.0,65.3,65.0,29.7,-99.9,88,61,58,29.81,29.72,5,-200,0,0.00
2013-6-19,76.7,53.7,61.0,63.0,20.4,-99.9,89,49,39,30.02,29.81,2,-223,0,0.00
2013-6-20,82.2,40.3,55.6,57.0,-10.4,-99.9,89,36,37,30.14,30.01,2,-406,0,0.00
2013-6-21,85.5,27.4,60.5,63.0,-45.2,-99.9,91,20,39,30.16,30.03,0,-633,0,0.00
2013-6-22,88.0,77.3,66.0,65.0,62.1,60.0,84,61,40,30.10,29.94,6,0,0,0.00
2013-6-23,89.3,79.0,71.5,66.0,61.8,57.0,71,57,35,30.04,29.93,6,0,0,0.00
2013-6-24,86.3,78.1,72.3,66.0,63.4,61.0,72,61,48,30.02,29.89,3,0,0,0.00
2013-6-25,88.2,77.3,66.0,66.0,64.3,59.0,80,65,45,29.95,29.79,9,1,0,0.07
2013-6-26,79.8,73.1,65.8,68.0,65.2,61.0,92,77,64,29.84,29.70,6,1,0,0.80
2013-6-27,74.2,68.6,67.1,66.0,62.9,-99.9,92,84,68,29.70,29.57,7,-11,0,0.75
2013-6-28,78.3,69.4,64.2,67.0,64.0,60.0,92,83,63,29.55,29.42,8,1,0,0.42
2013-6-29,79.2,69.4,61.8,63.0,60.0,58.0,89,73,50,29.57,29.45,7,1,0,0.00
2013-6-30,82.4,70.1,62.9,65.0,61.4,59.0,88,75,52,29.70,29.56,5,0,0,0.00
2013-7-1,82.0,71.6,66.0,69.0,64.3,62.0,90,79,56,29.82,29.67,4,0,0,0.20
2013-7-2,84.9,75.1,66.1,66.0,64.3,59.0,92,71,42,29.95,29.81,8,0,0,0.24
2013-7-3,86.1,77.5,70.9,68.0,64.0,62.0,77,64,50,30.05,29.94,7,0,0,0.00
2013-7-4,86.1,75.5,70.4,70.0,64.4,61.0,90,69,45,30.11,30.00,8,1,0,0.01
2013-7-5,87.4,78.5,70.3,68.0,64.7,62.0,88,63,48,30.05,29.97,12,1,0,0.00
2013-7-6,92.3,78.8,70.6,69.0,65.6,62.0,86,66,41,30.06,29.89,3,0,0,0.00
2013-7-7,77.0,71.5,67.8,67.0,65.0,64.0,89,80,67,29.99,29.91,5,0,0,0.34
2013-7-8,82.6,72.2,65.0,66.0,63.4,59.0,90,75,55,30.04,29.95,5,0,0,0.00
2013-7-9,82.0,73.8,68.4,71.0,66.8,64.0,90,79,68,29.98,29.87,8,1,0,0.79
2013-7-10,85.7,74.3,66.1,71.0,60.0,-99.9,91,71,57,29.87,29.71,10,-27,0,0.59
2013-7-11,76.0,68.1,64.8,65.0,62.6,58.0,93,83,65,29.89,29.75,6,0,0,0.01
2013-7-12,71.6,59.4,59.2,64.0,48.7,-99.9,93,81,72,30.00,29.85,1,-58,0,0.52
2013-7-13,81.4,69.0,61.8,70.0,58.9,-99.9,97,77,56,30.09,29.97,11,-31,0,0.52
2013-7-14,90.3,62.0,70.6,68.0,27.6,-99.9,80,49,40,30.17,30.07,7,-201,0,0.00
2013-7-15,90.3,47.8,72.8,68.0,-3.5,-99.9,79,35,38,30.28,30.10,3,-386,0,0.00
2013-7-16,91.6,69.9,70.8,73.0,49.5,-99.9,93,66,48,30.26,30.10,7,-104,0,0.63
2013-7-17,89.5,74.0,70.3,73.0,62.8,-99.9,93,76,51,30.20,30.03,5,-42,0,0.01
2013-7-18,92.7,81.4,72.0,74.0,69.6,68.0,89,70,46,30.06,29.91,2,0,0,0.00
2013-7-28,76.1,24.6,67.4,57.0,-57.9,-99.9,60,15,51,29.93,29.82,8,-658,0,0.32
2013-7-29,74.6,45.2,57.8,58.0,1.9,-99.9,74,40,44,30.08,29.92,11,-332,0,0.00
2013-7-30,76.5,29.7,57.0,57.0,-29.2,-99.9,87,34,52,30.13,30.04,0,-531,0,0.00
2013-7-31,76.3,44.9,62.3,64.0,5.4,-99.9,91,51,60,30.07,29.84,0,-347,0,0.00
2013-8-1,79.8,52.9,65.0,66.0,19.0,-99.9,92,56,51,29.84,29.74,5,-253,0,0.13
2013-8-2,80.3,67.9,63.9,60.0,49.7,-99.9,84,62,43,29.89,29.79,8,-41,0,0.00
2013-8-3,71.3,64.9,64.2,65.0,57.9,-99.9,92,83,66,29.89,29.84,7,-11,0,0.34
2013-8-4,74.2,52.4,59.5,62.0,23.7,-99.9,93,57,47,29.98,29.88,5,-208,0,0.00
2013-8-5,75.1,60.5,54.5,57.0,45.6,-99.9,89,66,36,30.04,29.90,3,-40,0,0.00
2013-8-6,83.4,70.4,58.1,62.0,55.5,50.0,87,61,34,29.93,29.85,6,0,0,0.00
2013-8-7,87.4,73.5,66.9,70.0,62.3,-99.9,92,71,48,29.91,29.78,8,-10,0,0.83
2013-8-8,83.0,74.5,70.6,72.0,66.8,63.0,89,77,63,29.88,29.80,5,0,0,0.02
2013-8-9,81.4,72.5,69.4,70.0,68.9,67.0,93,88,66,29.90,29.77,7,1,0,0.00
2013-8-10,81.6,71.0,61.3,67.0,61.6,57.0,95,75,46,29.98,29.90,5,0,0,0.00
2013-8-11,84.3,67.1,62.4,65.0,47.8,-99.9,89,64,48,30.00,29.89,1,-73,0,0.00
2013-8-12,83.2,73.2,66.1,67.0,64.1,60.0,92,75,49,29.95,29.77,2,0,0,0.00
2013-8-13,77.0,68.7,59.8,66.0,61.5,51.0,92,78,56,29.85,29.69,8,2,0,0.00
2013-8-14,66.9,57.9,51.1,53.0,49.9,46.0,91,76,57,30.05,29.85,6,0,0,0.00
2013-8-15,75.6,61.5,49.8,56.0,49.8,44.0,92,68,39,30.11,29.99,6,0,0,0.00
2013-8-16,77.7,65.2,54.5,59.0,54.1,49.0,90,69,46,30.05,29.99,3,0,0,0.00
2013-8-17,75.3,67.4,58.3,57.0,53.4,51.0,81,62,43,30.14,30.04,6,1,0,0.00
2013-8-18,73.9,64.3,61.5,64.0,47.8,-99.9,90,72,65,30.11,30.03,11,-31,0,0.00
2013-8-19,78.1,69.1,65.3,67.0,64.0,61.0,92,84,64,30.03,29.95,2,0,0,0.00
2013-8-20,81.4,70.4,62.1,64.0,59.7,54.0,92,71,42,30.09,29.99,0,0,0,0.00
2013-8-21,84.0,70.3,62.0,70.0,62.5,57.0,91,77,58,30.08,29.96,8,0,0,0.00
2013-8-22,79.9,70.2,64.7,67.0,63.9,60.0,91,81,64,30.01,29.88,9,1,0,0.00
2013-8-23,78.1,69.0,62.9,67.0,61.4,55.0,95,79,46,30.03,29.87,6,0,0,0.00
2013-8-24,81.6,68.9,58.3,62.0,56.3,46.0,90,66,29,30.18,30.03,2,0,0,0.00
2013-8-25,81.4,71.4,60.7,60.0,55.9,53.0,79,59,40,30.27,30.13,7,0,0,0.00
2013-8-26,82.0,72.8,64.8,63.0,58.9,55.0,72,62,50,30.16,29.93,6,1,0,0.00
2013-8-27,76.3,70.0,69.6,70.0,61.3,-99.9,91,80,67,29.93,29.84,5,-32,0,0.00
2013-8-28,76.5,72.9,68.8,72.0,69.6,66.0,94,89,82,29.85,29.69,9,0,0,0.00
2013-8-29,83.2,73.4,68.3,71.0,67.9,65.0,97,84,60,29.90,29.78,3,0,0,0.00
2013-8-30,86.1,76.1,66.6,68.0,64.9,62.0,87,70,49,29.90,29.72,4,0,0,0.00
2013-8-31,83.6,76.5,72.3,68.0,66.2,64.0,82,71,54,29.75,29.68,7,1,0,0.00
2013-9-1,79.8,73.9,70.9,70.0,65.7,63.0,86,76,61,29.74,29.65,5,0,0,0.00
2013-9-2,81.2,73.0,65.2,71.0,66.8,63.0,93,81,64,29.74,29.64,7,1,0,0.00
2013-9-3,73.7,65.8,59.5,64.0,58.7,54.0,97,79,52,29.94,29.71,10,1,0,0.00
2013-9-4,77.0,64.3,53.3,57.0,53.9,51.0,92,71,45,30.04,29.93,3,0,0,0.00
2013-9-5,74.4,65.2,56.7,60.0,54.9,46.0,83,70,48,30.09,29.97,7,1,0,0.00
2013-9-6,73.9,60.2,47.9,55.0,47.9,43.0,90,66,44,30.16,30.02,5,0,0,0.00
2013-9-7,80.3,38.0,51.7,55.0,-5.8,-99.9,100,48,35,30.02,29.85,0,-340,0,0.00
2013-9-8,-200.0,0.0,200.0,-99.9,-99.9,-99.9,0,0,100,29.95,29.83,0,-999,0,0.00
2013-9-9,-200.0,0.0,200.0,-99.9,-99.9,-99.9,0,0,100,30.02,29.94,0,-999,0,0.00
2013-9-10,-200.0,0.0,200.0,-99.9,-99.9,-99.9,0,0,100,30.10,29.99,0,-999,0,0.00
2013-9-11,-200.0,0.0,200.0,-99.9,-99.9,-99.9,0,0,100,30.10,29.96,0,-999,0,0.00
2013-9-12,-200.0,0.0,200.0,-99.9,-99.9,-99.9,0,0,100,29.96,29.72,0,-999,0,0.00
2013-9-13,-200.0,0.0,200.0,-99.9,-99.9,-99.9,0,0,100,29.92,29.72,0,-999,0,0.00
2013-9-14,78.6,16.5,51.6,52.0,-57.3,-99.9,100,22,39,30.09,29.91,0,-684,0,0.72
2013-9-15,72.5,59.5,46.5,53.0,48.2,43.0,88,68,47,30.11,29.96,6,0,0,0.00
2013-9-16,66.8,59.8,53.3,56.0,53.3,50.0,93,80,60,30.19,29.92,5,0,0,0.23
2013-9-17,71.3,56.8,47.1,57.0,46.4,39.0,93,72,34,30.29,30.14,6,0,0,0.01
2013-9-18,70.6,60.0,49.9,56.0,48.0,38.0,80,65,43,30.16,30.03,6,0,0,0.00
2013-9-19,77.6,52.7,62.1,60.0,22.8,-99.9,88,56,49,30.05,29.91,2,-221,0,0.00
2013-9-20,78.1,70.7,63.9,67.0,62.8,56.0,86,76,63,29.93,29.72,3,0,0,0.00
2013-9-21,72.0,65.3,55.3,64.0,59.2,53.0,93,81,68,29.72,29.54,6,0,0,1.27
2013-9-22,61.2,49.1,51.3,55.0,29.9,-99.9,95,71,51,29.92,29.69,8,-124,0,0.01
2013-9-23,55.7,44.9,45.5,48.0,27.5,-99.9,92,68,61,30.06,29.92,6,-107,0,0.00
2013-9-24,69.1,52.4,38.0,54.0,45.2,36.0,93,78,53,30.05,29.87,4,0,0,0.00
2013-9-25,76.0,60.9,49.8,57.0,49.3,46.0,89,68,45,29.89,29.76,3,0,0,0.00
2013-9-26,74.0,57.0,49.6,54.0,37.2,-99.9,88,59,35,29.97,29.80,2,-74,0,0.00
2013-9-27,74.6,61.2,49.4,55.0,49.6,46.0,90,68,41,30.08,29.96,2,0,0,0.00
2013-9-28,73.3,62.8,56.2,54.0,50.0,47.0,77,64,43,30.14,30.02,9,1,0,0.00
2013-9-29,74.2,62.9,54.1,57.0,49.8,46.0,77,63,43,30.05,29.91,7,0,0,0.00
2013-9-30,69.8,61.4,55.9,58.0,54.4,49.0,84,78,65,29.97,29.89,0,0,0,0.00
2013-10-1,76.7,63.3,60.5,60.0,47.6,-99.9,80,65,49,30.00,29.91,3,-54,0,0.00
2013-10-2,77.7,68.7,61.6,63.0,58.3,56.0,83,70,53,30.02,29.93,4,0,0,0.00
2013-10-3,79.8,71.1,65.6,65.0,61.0,58.0,90,71,56,30.00,29.91,0,0,0,0.01
2013-10-4,81.1,72.1,65.6,65.0,62.3,61.0,87,72,52,30.03,29.92,3,0,0,0.00
2013-10-5,83.8,74.0,68.6,65.0,62.3,61.0,77,67,49,29.98,29.86,5,0,0,0.00
2013-10-6,85.7,76.3,68.8,63.0,58.2,52.0,80,55,36,29.86,29.64,7,0,0,0.00
2013-10-7,71.8,57.7,48.6,56.0,48.2,40.0,91,72,51,30.06,29.55,7,1,0,0.68
2013-10-8,66.0,53.9,45.1,48.0,43.0,39.0,89,69,41,30.21,30.05,0,0,0,0.00
2013-10-9,66.9,55.2,46.8,43.0,40.0,32.0,80,59,28,30.22,30.11,3,0,0,0.00
2013-10-10,64.2,56.7,52.0,54.0,45.8,38.0,85,67,54,30.11,29.98,8,0,0,0.00
2013-10-11,56.7,54.2,51.3,54.0,51.5,49.0,94,90,84,29.99,29.93,3,0,0,0.10
2013-10-12,71.8,60.8,54.7,61.0,56.1,53.0,96,85,64,30.05,29.95,2,0,0,0.00
2013-10-13,73.5,62.8,57.8,58.0,54.3,52.0,87,74,55,30.14,30.03,5,0,0,0.02
2013-10-14,64.0,59.4,56.7,58.0,55.0,52.0,91,85,77,30.19,30.11,2,0,0,0.25
2013-10-15,74.0,63.2,55.9,60.0,53.2,49.0,86,71,49,30.12,29.87,3,0,0,0.00
2013-10-16,68.9,64.6,62.0,58.0,49.9,37.0,85,60,36,29.88,29.77,6,0,0,0.00
2013-10-17,62.0,55.9,48.8,60.0,53.7,46.0,94,92,85,29.84,29.58,8,0,0,0.38
2013-10-18,61.2,51.3,44.2,46.0,40.9,37.0,90,70,42,29.98,29.84,6,0,0,0.01
2013-10-19,55.1,47.9,40.5,46.0,41.1,37.0,90,78,62,29.90,29.70,8,0,0,0.12
2013-10-20,57.5,47.2,38.9,39.0,35.6,32.0,89,67,39,30.00,29.89,5,0,0,0.00
2013-10-21,66.1,56.5,48.0,38.0,33.7,30.0,58,43,28,29.99,29.78,10,0,0,0.00
2013-10-22,59.6,48.6,39.2,44.0,35.8,30.0,89,63,39,29.90,29.74,6,1,0,0.07
2013-10-23,40.8,38.7,36.8,37.0,34.8,30.0,90,86,66,29.89,29.68,8,0,0,0.00
2013-10-24,41.2,36.7,33.4,34.0,31.7,28.0,88,82,60,30.11,29.89,5,0,0,0.00
2013-10-25,42.8,35.4,31.5,33.0,29.5,28.0,91,80,59,30.33,30.12,3,0,0,0.00
2013-10-26,50.2,41.9,34.1,28.0,24.9,21.0,73,53,35,30.24,29.86,8,1,0,0.00
2013-10-27,54.2,45.1,37.5,33.0,30.1,27.0,75,57,37,30.03,29.92,3,0,0,0.00
2013-10-28,60.7,47.9,34.4,40.0,33.6,29.0,88,60,32,30.20,30.02,3,0,0,0.00
2013-10-29,60.1,47.5,35.6,38.0,34.0,30.0,89,62,32,30.31,30.17,0,0,0,0.00
2013-10-30,60.1,55.7,47.9,55.0,47.4,32.0,84,74,47,30.16,30.02,1,0,0,0.00
2013-10-31,68.8,64.2,58.9,56.0,53.2,49.0,84,68,51,30.01,29.39,12,2,0,0.03
2013-11-1,69.4,60.5,54.5,53.0,44.6,40.0,68,56,43,29.62,29.29,14,1,0,0.04
2013-11-2,56.0,49.3,43.6,44.0,40.2,38.0,84,72,54,29.89,29.56,6,0,0,0.01
2013-11-3,49.1,41.2,33.5,40.0,32.2,25.0,91,72,42,30.37,29.89,8,1,0,0.01
2013-11-4,48.9,39.2,30.6,26.0,23.2,20.0,84,55,35,30.46,30.33,8,1,0,0.00
2013-11-5,57.5,48.0,40.2,33.0,26.3,23.0,55,44,31,30.44,30.23,5,0,0,0.00
2013-11-6,73.9,63.5,53.1,47.0,43.7,33.0,66,50,34,30.24,29.81,8,1,0,0.00
2013-11-7,64.0,46.7,38.2,53.0,37.9,22.0,92,73,50,30.09,29.76,10,2,0,0.13
2013-11-8,42.8,37.3,32.4,28.0,24.7,22.0,71,61,45,30.25,30.05,6,2,0,0.00
2013-11-9,57.5,46.4,32.2,25.0,20.7,16.0,70,40,21,30.23,29.93,8,1,0,0.00
2013-11-10,50.7,44.2,36.9,32.0,26.5,20.0,63,51,31,30.23,29.92,13,3,0,0.00
2013-11-11,50.5,42.3,32.4,36.0,26.2,21.0,78,55,34,30.23,29.96,12,1,0,0.01
2013-11-12,42.3,29.4,25.8,37.0,24.3,17.0,92,82,58,30.45,29.97,8,1,0,0.01
2013-11-13,35.2,27.9,21.4,20.0,18.3,17.0,83,68,49,30.51,30.36,8,1,0,0.06
2013-11-14,49.1,39.5,29.3,18.0,16.2,12.0,64,41,24,30.36,30.12,12,2,0,0.01
2013-11-15,55.9,49.8,44.8,41.0,20.1,11.0,80,33,22,30.17,30.05,11,1,0,0.01
2013-11-16,65.3,54.3,44.2,48.0,43.4,39.0,81,68,51,30.14,29.93,11,1,0,0.01
2013-11-17,67.1,61.3,53.2,57.0,50.0,44.0,84,67,54,29.94,29.45,24,2,0,0.12
2013-11-18,54.7,49.0,39.9,47.0,32.5,24.0,79,54,37,29.97,29.61,19,5,0,0.00
2013-11-19,39.6,33.8,30.4,25.0,20.3,-99.9,70,61,54,30.33,29.97,8,-19,0,0.00
2013-11-20,48.9,32.7,26.1,20.0,-2.7,-99.9,77,34,19,30.36,30.23,10,-146,0,0.00
2013-11-21,58.1,39.1,36.6,42.0,6.0,-99.9,59,42,39,30.35,30.12,8,-157,0,0.00
2013-11-22,53.2,34.6,37.8,51.0,2.1,-99.9,93,63,88,30.14,29.97,10,-307,0,0.02
2013-11-23,37.5,27.5,19.2,35.0,5.4,-99.9,90,61,51,30.30,30.08,11,-144,0,0.00
2013-11-24,21.4,16.2,14.3,14.0,-2.7,-99.9,86,57,47,30.52,30.27,14,-71,0,0.00
2013-11-25,39.6,28.5,14.6,13.0,4.8,-2.0,64,40,18,30.49,30.17,3,0,0,0.00
2013-11-26,38.5,34.9,32.5,35.0,30.9,12.0,94,86,34,30.16,29.62,3,0,0,0.03
2013-11-27,32.8,27.6,21.9,31.0,23.7,11.0,94,86,62,30.09,29.64,14,3,0,0.00
2013-11-28,29.0,24.7,19.2,19.0,15.1,11.0,78,67,58,30.38,30.10,11,1,0,0.02
2013-11-29,35.6,30.0,26.3,20.0,18.8,18.0,74,64,50,30.59,30.38,3,0,0,0.01
2013-11-30,44.6,29.7,26.3,24.0,1.5,-99.9,69,48,42,30.53,30.15,7,-128,0,0.00
2013-12-1,46.5,42.5,42.1,31.0,21.2,-99.9,59,47,41,30.15,29.89,8,-30,0,0.00
2013-12-2,51.3,45.1,41.3,36.0,32.2,29.0,78,61,50,29.89,29.72,6,0,0,0.00
2013-12-3,56.5,46.0,37.6,38.0,35.7,34.0,88,69,46,29.82,29.74,1,0,0,0.00
2013-12-4,63.7,55.3,48.5,45.0,40.3,-99.9,69,59,48,29.89,29.76,6,-10,0,0.40
2013-12-5,68.4,60.3,44.8,57.0,51.8,43.0,92,75,59,29.87,29.75,11,1,0,0.00
2013-12-6,43.1,34.4,29.5,41.0,32.5,28.0,93,92,91,30.19,29.90,6,1,0,0.00
2013-12-7,29.4,26.4,21.9,28.0,22.0,17.0,93,83,70,30.52,30.17,6,0,0,0.00
2013-12-8,38.2,26.6,20.2,34.0,21.7,16.0,85,81,75,30.51,30.00,11,1,0,0.00
2013-12-9,47.3,38.4,31.2,44.0,34.0,24.0,92,84,73,30.08,29.90,13,3,0,0.00
2013-12-10,31.2,27.2,24.5,24.0,19.5,12.0,89,74,57,30.22,29.94,13,2,0,0.00
2013-12-11,31.8,26.2,19.9,19.0,13.7,11.0,74,60,43,30.34,30.19,12,3,0,0.00
2013-12-12,24.1,19.9,13.5,16.0,5.8,2.0,81,55,40,30.44,30.26,17,3,0,0.00
2013-12-13,36.5,28.5,20.5,14.0,9.4,4.0,54,45,35,30.25,30.15,8,1,0,0.00
2013-12-14,45.4,38.2,33.5,41.0,28.1,11.0,89,70,35,30.17,29.58,11,2,0,0.00
2013-12-15,42.8,31.2,26.0,40.0,26.0,19.0,90,81,69,29.96,29.55,12,5,0,0.00
2013-12-16,30.4,25.4,22.5,26.0,20.9,17.0,90,83,72,30.10,29.96,8,1,0,0.00
2013-12-17,38.2,34.0,28.4,32.0,28.6,22.0,91,81,72,29.98,29.86,5,1,0,0.00
2013-12-18,34.1,28.5,25.7,23.0,19.8,18.0,81,70,51,30.16,29.98,10,2,0,0.00
2013-12-19,56.7,48.7,35.2,32.0,20.9,3.0,44,34,21,30.07,29.93,13,3,0,0.00
2013-12-20,59.6,55.8,53.1,49.0,34.2,19.0,80,47,26,29.94,29.80,13,2,0,0.00
2013-12-21,68.8,62.5,59.0,57.0,52.8,49.0,88,71,55,29.82,29.57,17,2,0,0.00
2013-12-22,73.0,63.7,59.0,56.0,54.0,51.0,87,72,51,29.77,29.47,12,4,0,0.00
2013-12-23,32.2,29.3,29.7,25.0,16.6,-99.9,74,67,66,30.22,0.00,6,-43,0,0.00
2013-12-24,29.5,23.0,15.6,23.0,12.9,4.0,89,66,47,30.48,30.18,11,3,0,0.00
2013-12-25,33.4,23.1,13.5,19.0,11.2,6.0,77,62,38,30.48,30.16,3,0,0,0.00
2013-12-26,37.8,32.4,27.2,27.0,19.3,12.0,86,60,41,30.29,30.10,11,3,0,0.00
2013-12-27,44.5,28.0,29.5,19.0,-15.2,-99.9,55,30,29,30.33,30.21,7,-270,0,0.00
2013-12-28,50.8,44.3,37.8,24.0,19.5,17.0,45,38,29,30.23,29.98,11,2,0,0.00
2013-12-29,49.1,42.2,38.8,41.0,33.3,-99.9,93,78,27,29.97,29.55,6,-10,0,0.00
2013-12-30,38.8,11.2,23.3,36.0,-47.9,-99.9,91,35,73,30.12,29.78,6,-558,0,0.00
2013-12-31,27.5,15.5,24.2,19.0,-30.7,-99.9,78,41,63,30.28,29.93,12,-391,0,0.00
2014-1-1,45.1,17.1,29.8,25.0,-46.5,-99.9,77,22,34,30.29,29.94,5,-551,0,0.00
2014-1-2,30.4,2.6,23.0,27.0,-90.7,-99.9,92,7,88,29.95,29.48,5,-903,0,0.00